Simultaneous Nadir Overpasses (SNOs) Predictions

Prediction of SNOs between GOES-15 and TERRA Satellite Orbit:

Table of predicted SNOs for the next 14.0 days since TLE Epoch: 12/17/2016
Index Date Time (GOES-15) GOES-15 Lat,Lon TERRA Lat,Lon Distance(km) Time Diff (sec)
1 12/17/2016 19:33:59 -0.08,-135.19 -0.01,-135.57 43.57 80
2 12/19/2016 19:19:07 -0.08,-135.14 -0.62,-132.61 287.80 80
3 12/20/2016 07:43:10 0.06,-135.13 -0.48,-137.80 302.73 80
4 12/22/2016 07:28:18 0.07,-135.09 0.14,-134.84 28.19 80
5 12/24/2016 07:16:07 0.07,-135.03 0.76,-131.88 358.52 80
6 12/24/2016 19:40:01 -0.05,-135.01 0.38,-137.03 230.08 80
7 12/26/2016 19:25:09 -0.06,-134.95 -0.24,-134.07 99.59 80
8 12/27/2016 07:49:13 0.04,-134.94 -0.85,-139.27 490.83 80
9 12/28/2016 19:12:57
